Zurück zum Katalog

STARLINK-31913

AktivKommunikationVLEO
NORAD 59667·PAYLOAD·🇺🇸 United States

Gestartet May 6, 2024 von Cape Canaveral Space Force Station

Loading…

Nächste Überflüge (nächste 24 Stunden)

TLE

AktuellSource: CelesTrak SupGP

Epoche: Sep 14, 2026, 22:10 UTC

1 59667C 24084P   26257.92409722  .00051771  00000+0  18753-2 0  2571
2 59667  43.0011  49.4430 0001820 278.3915 179.5350 15.27549271    18

Verfolge STARLINK-31913 in Echtzeit mit AllMySat

Download on the App Store